COSMOS 970 DEB, 65004

Orbit data source: Space-Track

COSMOS 970 DEB, 65004 is space debris in LEO originally from a launch on Wed, 21 Dec 1977 UTC launched from the Tyuratam Missile And Space Complex (TTMTR). Debris objects in space refer to the collection of defunct objects orbiting the Earth. Examples of debris include non-operational satellites, rocket bodies, and fragments generated from explosions, collisions, or faulty payload assembly.

Loading next visibility...
Identifier
65004, 1977-121DR
Orbit
LEO
Country
Flag of CISCIS
Related business
Manufacturer
Unknown
Mission
Spacecraft
Bus & Motor
Unknown
Mass
Unknown
Launch date (UTC)
1977-12-21 (48 years ago)
Launch vehicle
Unknown
Launch site
Tyuratam Missile And Space Complex (TTMTR)
Object type
Payload
Rocket body
Debris
Shape & HBR
Unknown shape, 0.1 m
Radar Cross Section
Small (<0.1 m²)

Expand to show TLE details & history
Last TLE update: 2 days ago

TLE from 2 days ago
0 COSMOS 970 DEB
1 65004U 77121DR  26169.90982720  .00000396  00000-0  35246-3 0  9995
2 65004  65.9017 243.0556 0106780  95.4832 265.8431 13.92921184208259
Epoch: 2026-06-18T21:50Z
TLE epoch observation values (Epoch: 2026-06-18T21:50:09.070Z)
Latitude
-0.00004°
Longitude
8.3714°
Altitude
926.895 km
Speed
7.386 km/s
True Right ascension
16h 12m 13s
True Declination
0° 00' 00"
Sunlit
Object was in full shadow at epoch
Visualization orbit readout
Latitude
Unknown
Longitude
Unknown
Altitude
Unknown
Speed
Unknown
Apparent Right ascension
Unknown
Apparent Declination
Unknown
Sunlit
N/A
Visualization observer readout
Local Sidereal Time
07:13:07
Azimuth
Unknown
Elevation
Unknown
Doppler factor
Unknown
Orbital elements
Apogee altitude
994.804 km
Perigee altitude
839.011 km
Semi-major axis
7,295.044 km
Eccentricity
0.01068
Inclination
65.9017°
RAAN
243.0556°
Arg. of periapsis
95.4832°
True anomaly
264.62398°
Mean anomaly
265.8431°
Eccentric anomaly
265.23341°
Mean motion
3.48338 °/min
Orbital period
103.35 mins
BSTAR
0.00035246
Loading maneuver chart data...
Computing Atmospheric mass density...
Loading historical data...
Loading historical data...
Loading historical data...
Loading historical data...
Loading historical data...
Loading historical data...
Loading historical data...

Documentation

Showing up to 5 results
|